sat.trackr.live / text

‹ back to catalog

STARLINK-3728

NORAD 52361 · 2022-045AG

PAYLOAD ACTIVE UNKNOWN

§ Identity

Operator
Country
US
Launch date
2022-04-29
Launch site
AFETR
Launch vehicle
Mass (kg)
RCS (m²)

Purposes: comms

External: N2YO · Heavens-Above · Gunter

§ Orbital elements

Epoch: 2026-09-19T23:40:52.741056Z

Period
93.79 min
Inclination
53.1608°
Eccentricity
0.0001092
Mean motion
15.35399524 rev/d
Perigee alt
459.0 km
Apogee alt
460.5 km
Semi-major
6,837.9 km
B*
5.6066e-5
RAAN
31.8583°
Arg perigee
81.7129°
Mean anomaly
278.3998°
Rev number
24,532

§ Raw data

STARLINK-37281 52361U 22045AG  26262.98672154  .00001576  00000+0  56066-4 0  99952 52361  53.1608  31.8583 0001092  81.7129 278.3998 15.35399524245328

JSON: /api/v1/satellites/52361 · /tle

For live sub-satellite position, see the globe view (requires WebGL).

§ Visibility from observer

Set your observer location to see the next 7 days of passes ≥ 10°. The values pass through the URL so the page stays shareable.

No JS? Fill the form by hand. The geolocation button needs JavaScript.